Regional Weather Roundup
Issued by NWS Burlington, VT

Home | Current Version | Previous Version | Text Only | Print | Product List | Glossary On
Versions: 1 2 3 4 5 6 7 8 9 10 11 12 13 14 15 16 17 18 19 20 21 22 23 24 25 26 27 28 29 30 31 32 33 34 35 36 37 38 39 40 41 42 43 44 45 46 47 48 49 50
432
ASUS41 KBTV 270430
RWRBTV
VERMONT REGIONAL WEATHER ROUNDUP
NATIONAL WEATHER SERVICE BURLINGTON VT
1200 AM EDT SAT MAY 27 2017

NOTE: "FAIR" INDICATES FEW OR NO CLOUDS BELOW 12,000 FEET WITH NO
SIGNIFICANT WEATHER AND/OR OBSTRUCTIONS TO VISIBILITY.

* THESE REPORTS ARE NOT UNDER NWS QUALITY CONTROL AND/OR DO NOT
  REPORT WEATHER SUCH AS PRECIPITATION AND FOG.

VTZ001>019-270500-
_____VERMONT_____


CITY           SKY/WX    TMP DP  RH WIND       PRES   REMARKS
BURLINGTON     CLOUDY    53  50  89 CALM      29.81S
MONTPELIER     CLOUDY    49  48  97 W5        29.83R
MORRISVILLE    CLOUDY    49  47  93 N3        29.82R
ST. JOHNSBURY*   N/A     51  47  86 MISG      29.76R
LYNDONVILLE*   CLOUDY    49  45  86 W5        29.79S
MIDDLEBURY*    CLOUDY    51  49  95 N3        29.81S FOG
RUTLAND*       CLOUDY    51  48  89 NW8       29.81R
SPRINGFIELD    LGT RAIN  52  49  89 N5        29.79R
HIGHGATE*      MOCLDY    50  48  94 CALM      29.82S
NEWPORT*       CLOUDY    49  46  91 NW7       29.80S
BENNINGTON     CLOUDY    52  48  86 NW5       29.80R
SUTTON*          N/A     46 N/A N/A MISG        N/A
ISLAND POND*     N/A     48 N/A N/A N3          N/A
GALLUP MILLS*    N/A     48 N/A N/A MISG        N/A
UNION VILLAGE*   N/A     50 N/A N/A MISG        N/A
MT. MANSFIELD*   N/A     39 N/A N/A N10         N/A

_____LAKE CHAMPLAIN_____


CITY           SKY/WX    TMP DP  RH WIND       PRES   REMARKS
BURTON ISLAND*   N/A     54  50  87 N2          N/A
COLCHESTER RF*   N/A     52  50  93 NW13        N/A
DIAMOND ISL*     N/A     55  48  76 NW12        N/A

$$

NYZ007-026>031-035-052-083-087-270500-
_____NORTHERN NEW YORK_____


CITY           SKY/WX    TMP DP  RH WIND       PRES   REMARKS
PLATTSBURGH    CLOUDY    51  47  86 NW6       29.82R
SARANAC LAKE   MOCLDY    47  47 100 CALM      29.83R
MASSENA        FOG       50  49  96 CALM      29.86S VSB 1/2
OGDENSBURG*    FAIR      53  52  95 CALM      29.86R
POTSDAM*       FOG       48  48 100 CALM      29.86S VSB 3/4
STARK FALLS*     N/A     48 N/A N/A NE2         N/A
WATERTOWN      CLOUDY    55  53  93 CALM      29.85S
FT DRUM        CLOUDY    52  50  91 NE3       29.85R
ALBANY         DRIZZLE   55  51  86 NE5       29.81R
GLENS FALLS    CLOUDY    54  51  90 N3        29.82R

$$
NHZ002-005-011-270500-
_____NEW HAMPSHIRE_____


CITY           SKY/WX    TMP DP  RH WIND       PRES   REMARKS
LEBANON        CLOUDY    53  49  86 N5        29.77R
KEENE          CLOUDY    54  52  93 N5        29.77R
MT WASHINGTON  FOG       34  34 100 N30         N/A  VSB 1/8 WCI  20
PLYMOUTH       CLOUDY    53  47  81 W6        29.75S
WHITEFIELD     CLOUDY    50  44  80 CALM      29.76R

$$

_____REGIONAL QUEBEC LOCATIONS_____


CITY           SKY/WX    TMP DP  RH WIND       PRES   REMARKS
MONTREAL       MOCLDY    54  50  87 NW5       29.83S
QUEBEC CITY    MOCLDY    50  45  81 NE5       29.82R
SHERBROOKE     MOCLDY    45  45 100 N2        29.79R

_____REGIONAL ONTARIO LOCATIONS_____


CITY           SKY/WX    TMP DP  RH WIND       PRES   REMARKS
OTTAWA         CLOUDY    54  52  94 W2        29.85S

______KEY______
VSB  - VISIBILITY IN MILES
WCI  - WIND CHILL INDEX
HX   - HEAT INDEX
$$
NNNN




USA.gov is the U.S. government's official web portal to all federal, state and local government web resources and services.